Flag for U.S.A. Weather past 2 weeks in Jackson, Mississippi, U.S.A.

Now
48 °F

Clear.


Feels Like: 46 °F
Forecast: 46 / 70 °F
Wind: 5 mph from Southeast

Location: Hawkins Field


UV Index: 0 (Low)

Visibility: 10 mi


Pressure: 30.16 "Hg

Humidity: 66%

Dew point: 37 °F

Location of JacksonLocation

Historic Weather in Jackson

°F

Jackson temperature yesterday

Maximum temperature yesterday: 66 °F (at 4:53 PM)
Minimum temperature yesterday: 37 °F (at 5:53 AM)
Average temperature yesterday: 51 °F

Past Weeks' High & Low Weather Summary

 TemperatureHumidityPressure
High86 °F (Apr 3, 2:53 PM)97% (Apr 7, 3:53 AM)30.26 "Hg (Apr 7, 3:53 AM)
Low37 °F (Apr 16, 5:53 AM)25% (Apr 16, 2:53 PM)29.58 "Hg (Apr 7, 3:53 AM)
Average61 °F68%29.99 "Hg
* Reported Apr 2 12:53 AM — Apr 17 12:53 AM, Jackson, Weather by CustomWeather, © 2014

Note: Actual official high and low records may vary slightly from our data, if they occured in-between our weather recording intervals... More about our weather records

Advertising

Historic Weather Conditions — Data for Previous 24 hours

 ConditionsComfort  
Time TempWeatherWind HumidityBarometerVisibility
12:53 AM
Apr 17
48 °FClear.No wind68%30.16 "Hg10 mi
11:53 PM
Apr 16
51 °FClear.3 mph59%30.14 "Hg10 mi
10:53 PM51 °FClear.6 mph56%30.13 "Hg10 mi
9:53 PM54 °FClear.3 mph51%30.12 "Hg10 mi
8:53 PM54 °FClear.No wind57%30.11 "Hg10 mi
7:53 PM56 °FSunny.No wind51%30.10 "Hg10 mi
6:53 PM62 °FSunny.No wind34%30.10 "Hg10 mi
5:53 PM64 °FSunny.No wind26%30.10 "Hg10 mi
4:53 PM66 °FSunny.5 mph26%30.10 "Hg10 mi
3:53 PM64 °FSunny.9 mph26%30.11 "Hg10 mi
2:53 PM62 °FSunny.N/A25%30.15 "Hg10 mi
1:53 PM60 °FSunny.No wind28%30.18 "Hg10 mi
12:53 PM58 °FSunny.7 mph32%30.21 "Hg10 mi
11:53 AM55 °FSunny.6 mph33%30.23 "Hg10 mi
10:53 AM52 °FSunny.3 mph37%30.25 "Hg10 mi
9:53 AM50 °FSunny.9 mph43%30.26 "Hg10 mi
8:53 AM46 °FSunny.14 mph46%30.26 "Hg10 mi
7:53 AM42 °FSunny.8 mph57%30.24 "Hg10 mi
6:53 AM40 °FClear.10 mph60%30.23 "Hg10 mi
5:53 AM37 °FClear.No wind76%30.20 "Hg10 mi
4:53 AM39 °FClear.3 mph67%30.19 "Hg10 mi
3:53 AM40 °FClear.6 mph65%30.19 "Hg10 mi
2:53 AM41 °FClear.5 mph65%30.20 "Hg10 mi
Weather by CustomWeather, © 2014

See weather overview